Location: Trebic
(49.2170°N, 15.8830°E)
Time: 11:38:11
(UTC+02:00)

Transit 2A Rocket - Pass Details

Date: 23 July 2019
Orbit: 590 x 913 km, 66.7° (Epoch: 21 August)

Event Time Altitude Azimuth Distance (km) Brightness Sun altitude
Rises 02:31:32 0° 173° (S) 3,519 - -17.9°
Reaches altitude 10° 02:34:32 10° 160° (SSE) 2,561 - -17.7°
Exits shadow 02:35:34 14° 153° (SSE) 2,277 7.1 -17.6°
Maximum altitude 02:39:09 24° 110° (ESE) 1,733 6.9 -17.4°
Drops below altitude 10° 02:43:35 10° 58° (ENE) 2,455 8.5 -17.1°
Sets 02:46:23 0° 45° (NE) 3,340 9.7 -16.9°
